User: anonymous   Login
Location: Newark
(49.4569°N, 2.2158°E)
Time: 18:20:06
(UTC+00:00)
Language:

LilacSat-2 - Orbit

View from above orbital plane
View from above orbital plane
View from above satellite
View from above satellite

Ground track
Ground track

The orbit data is extracted from the following two-line orbital elements,

1 40908U 15049K   21058.13098706  .00000888  00000-0  52029-4 0  9996
2 40908  97.5010  59.6476 0014774 216.3348 208.2869 15.14303738300533
Epoch (UTC): 27 February 2021 03:08:37
Eccentricity: 0.0014774
inclination: 97.5010°
perigee height: 513 km
apogee height: 533 km
right ascension of ascending node: 59.6476°
argument of perigee: 216.3348°
revolutions per day: 15.14303738
mean anomaly at epoch: 208.2869°
orbit number at epoch: 30053

The dashed part of the orbit path shows where the satellite is in the earth's shadow,  

DLR